Regional Weather Roundup
Issued by NWS

Home | Current Version | Previous Version | Graphics & Text | Print | Product List | Glossary On
Versions: 1 2 3 4 5 6 7 8 9 10 11 12 13 14 15 16 17 18 19 20 21 22 23 24 25 26 27 28
000
ASUS45 KPSR 080710
RWRAZ

ARIZONA HOURLY REGIONAL WEATHER ROUNDUP
NATIONAL WEATHER SERVICE PHOENIX AZ
1200 AM MST THU DEC 08 2016

NOTE: FAIR INDICATES FEW OR NO CLOUDS BELOW 12,000 FEET WITH NO
SIGNIFICANT WEATHER AND/OR OBSTRUCTIONS TO VISIBILITY.

AZZ001>003-036-080800-
NORTHWEST ARIZONA

CITY           SKY/WX    TMP DP  RH WIND       PRES   REMARKS
BULLHEAD CITY  CLEAR     54   5  14 N15G22    30.18R
KINGMAN        CLEAR     33   6  32 E12       30.17S WCI  24
$$

AZZ004>008-015-016-018-080800-
NORTH CENTRAL ARIZONA

CITY           SKY/WX    TMP DP  RH WIND       PRES   REMARKS
WILLIAMS       CLEAR     23  18  80 S10       30.17S WCI  12
PRESCOTT       CLEAR     30  28  92 S6        30.16S WCI  24
FLAGSTAFF      PTCLDY    21  16  81 CALM      30.18S
PAYSON         CLEAR     34  28  80 CALM      30.18F
PAGE           CLEAR     30   3  31 CALM      30.25R
$$

AZZ009>014-017-080800-
NORTHEAST ARIZONA

CITY           SKY/WX    TMP DP  RH WIND       PRES   REMARKS
WINSLOW        PTCLDY    26  16  65 SW6       30.22R WCI  19
SAINT JOHNS    CLEAR     25  22  88 SW6       30.17S WCI  18
WINDOW ROCK    CLEAR     19  10  68 CALM      30.22S
SHOW LOW       CLEAR     25  21  86 CALM      30.19S
$$

AZZ023-080800-
GREATER PHOENIX AREA

CITY           SKY/WX    TMP DP  RH WIND       PRES   REMARKS
PHOENIX        PTCLDY    53  36  52 SW6       30.10S
BUCKEYE        CLEAR     48  36  61 N6        30.13R
LUKE AFB       CLEAR     48  39  70 CALM      30.10S
DEER VALLEY    CLEAR     50  41  71 N5        30.10S
SCOTTSDALE     CLEAR     48  41  76 CALM      30.12S
MESA-GATEWAY   PTCLDY    48  39  71 CALM      30.12S
$$

AZZ027-028-080800-
SOUTHWEST MARICOPA COUNTY AND PINAL COUNTY

CITY           SKY/WX    TMP DP  RH WIND       PRES   REMARKS
CASA GRANDE    NOT AVBL
GILA BEND      FAIR     N/A N/A N/A S8          N/A
$$

AZZ503-504-507>509-080800-
SOUTHEAST ARIZONA

CITY           SKY/WX    TMP DP  RH WIND       PRES   REMARKS
TUCSON         MOCLDY    50  39  66 CALM      30.14R
DAVIS-MONTHAN  PTCLDY    49  38  65 SW7       30.13R
NOGALES        MOCLDY    48  37  65 SE3       30.14R
SIERRA VISTA   CLOUDY    45  35  70 W5        30.16R
DOUGLAS        CLOUDY    45  34  65 N7        30.14R
SAFFORD        CLOUDY    43  32  65 SE3       30.12R
$$

AZZ020-021-025-026-031-080800-
SOUTHWEST ARIZONA

CITY           SKY/WX    TMP DP  RH WIND       PRES   REMARKS
YUMA           CLEAR     51  20  29 CALM      30.13S
$$

CAZ031-033-041-043-047-048-061-080800-
SOUTHERN CALIFORNIA

CITY           SKY/WX    TMP DP  RH WIND       PRES   REMARKS
DOWNTOWN L.A.  CLEAR     53  50  89 CALM      30.16R
L.A. AIRPORT   CLEAR     55  50  83 E3        30.16S
SAN DIEGO      PTCLDY    55  49  80 CALM      30.17R
BURBANK        CLEAR     49  43  80 CALM      30.15S
ONTARIO        PTCLDY    50  48  93 CALM      30.16S
RIVERSIDE      CLEAR     50  47  89 CALM      30.16S
PALM SPRINGS   CLEAR     56  27  32 NW3       30.16F
EL CENTRO NAS  PTCLDY    46  23  40 W9        30.16S
IMPERIAL       CLEAR     48  28  46 W6        30.14S
BLYTHE         CLEAR     48   8  19 CALM      30.15S
NEEDLES        CLEAR     48   3  15 W8        30.17F
$$

NVZ020-UTZ003-080800-
SOUTHERN NEVADA-UTAH

CITY           SKY/WX    TMP DP  RH WIND       PRES   REMARKS
LAS VEGAS      MOCLDY    40   8  26 S3        30.21S
SALT LAKE CITY PTCLDY    21  10  62 SE3       30.31F
$$

NMZ009-TXZ055-080800-
NEW MEXICO-WEST TEXAS

CITY           SKY/WX    TMP DP  RH WIND       PRES   REMARKS
ALBUQUERQUE    CLOUDY    31  14  49 E21       30.23R WCI  18
EL PASO        CLOUDY    52  35  52 CALM      30.14S
$$


........................KEY........................
SKY/WX - SKY CONDITION/WEATHER
TMP    - TEMPERATURE IN FAHRENHEIT
DP     - DEW POINT IN FAHRENHEIT
RH     - RELATIVE HUMIDITY IN PERCENT
WIND   - DIRECTION AND SPEED IN MILES PER HOUR (MPH)
VRB    - VARIABLE WIND DIRECTION
PRES   - MEAN SEA LEVEL PRESSURE IN INCHES OF MERCURY
         F - FALLING PRESSURE   R - RISING PRESSURE
         S - STEADY PRESSURE
VSB    - VISIBILITY IN MILES
HX     - HEAT INDEX IN FAHRENHEIT
WCI    - WIND CHILL INDEX IN FAHRENHEIT
TC     - TEMPERATURE IN CELSIUS WHICH IS ALSO KNOWN AS
         TEMPERATURE IN CENTIGRADE
AFB    - AIR FORCE BASE
         LUKE AFB IS LUKE AIR FORCE BASE
         DAVIS-MONTHAN IS DAVIS-MONTHAN AIR FORCE BASE
NAS    - NAVAL AIR STATION
         EL CENTRO NAS IS EL CENTRO NAVAL AIR STATION
N/A    - NOT AVAILABLE





USA.gov is the U.S. government's official web portal to all federal, state and local government web resources and services.